Location: Ravensburg
(47.7866°N, 9.6124°E)
Time: 09:47:38
(UTC+02:00)

YUBILEINY - Pass Details

Date: 20 March 2026
Orbit: 1477 x 1509 km, 82.5° (Epoch: 17 April)

Event Time Altitude Azimuth Distance (km) Brightness Sun altitude
Rises 03:40:03 0° 348° (NNW) 4,619 ? -27.0°
Reaches altitude 10° 03:42:58 10° 346° (NNW) 3,632 ? -26.6°
Maximum altitude 03:51:32 64° 268° (W) 1,612 ? -25.4°
Enters shadow 03:56:20 29° 197° (SSW) 2,441 ? -24.7°
